Skip Page Navigation
NASA JPL Caltech
NASA Logo - Jet Propulsion Laboratory + View the NASA Portal
+ Near-Earth Object (NEO) Program
Search JPL
JPL Home Earth Solar System Stars & Galaxies Technology
JPL Solar System Dynamics
BODIES ORBITS EPHEMERIDES TOOLS PHYSICAL DATA DISCOVERY FAQ SITE MAP
JPL Small-Body Database Browser
Search: [ help ]  
10078 Stanthorpe (1989 UJ3)
Classification: Main-belt Asteroid          SPK-ID: 2010078
Ephemeris | Orbit Diagram | Orbital Elements | Physical Parameters | Discovery Circumstances ]

[ show orbit diagram ]
Orbital Elements at Epoch 2456400.5 (2013-Apr-18.0) TDB
Reference: MPO250311 (heliocentric ecliptic J2000)
 Element Value Uncertainty (1-sigma)   Units 
e 0.1814498 n/a  
a 2.5588456 n/a AU
q 2.0945436 n/a AU
i 13.11183 n/a deg
node 359.56335 n/a deg
peri 291.15038 n/a deg
M 337.88569 n/a deg
tp 2456492.3407563
(2013-Jul-18.84075630)
n/a JED
period 1495.0804378
4.09
n/a
n/a
d
yr
n 0.24078972 n/a deg/d
Q 3.0231476 n/a AU
  Orbit Determination Parameters
   # obs. used (total)      731  
   first obs. used      1989-??-??  
   last obs. used      2012-05-18  
   # oppositions      15  
   planetary ephem.      DE403  
   condition code      0  
   fit RMS      0.59  
   data source      MPC:mpn  
   producer      MPCLINUX  

Additional Information
 T_jup = 3.377 

Ephemeris | Orbit Diagram | Orbital Elements | Physical Parameters | Discovery Circumstances ]

Physical Parameter Table
Parameter Symbol Value Units Sigma Reference Notes
absolute magnitude H 13.6 mag n/a PDS3 (MPC 33876)  

10078 Stanthorpe           Discovered 1989 Oct. 30 by T. Seki at Geisei.
Stanthorpe, known as Queensland's wine capital, is a town nestled in national parks on the highlands in the southeastern part of the Australian state. It is also known for fruit production and beautiful night skies. The name was suggested by E. Kato.
NOTE: some special characters may not display properly (any characters within {} are an attempt to place the proper accent above a character)
Reference: 20050919/MPCPages.arcLast Updated: 2005-09-26

Alternate Designations
 1989 UJ3 = 1993 SD6 
Ephemeris | Orbit Diagram | Orbital Elements | Physical Parameters | Discovery Circumstances ]
ABOUT SSD CREDITS/AWARDS PRIVACY/COPYRIGHT GLOSSARY LINKS
FirstGov 2013-May-21 09:25 UT
(server date/time)  
NASA Home Page
Site Manager:   Donald K. Yeomans
Webmaster  Alan B. Chamberlin